Location: Augustenthal
(51.7167°N, 10.2833°E)
Time: 06:27:10
(UTC+00:00)

ISS - Pass Details

Date: 21 September 2021
Orbit: 417 x 423 km, 51.6° (Epoch: 18 October)

Event Time Altitude Azimuth Distance (km) Brightness Sun altitude
Rises 18:01:59 0° 232° (SW) 2,355 0.7 -7.4°
Reaches altitude 10° 18:04:09 10° 224° (SW) 1,495 -0.5 -7.7°
Maximum altitude 18:07:18 39° 154° (SSE) 646 -3.1 -8.2°
Enters shadow 18:10:16 11° 85° (E) 1,423 -1.7 -8.7°
